KC5NAM Weather Reports


Display with metric or nautical units.
time (UTC)temp
F
wind
direction
speed
MPH
gust
MPH
rain 1hr
in
rain 24hr
in
rain mn
in
humidity
%
barometer
mb
20260506235035 78 23 3.0 20.0 0.00 0.00 0.00 71 1014.1
20260506234541 78 329 5.0 20.0 0.00 0.00 0.00 71 1013.9
20260506234038 78 329 4.0 18.0 0.00 0.00 0.00 71 1013.8
20260506233539 79 352 6.0 18.0 0.00 0.00 0.00 70 1013.9
20260506233045 79 5 2.0 14.0 0.00 0.00 0.00 71 1013.9
20260506232536 80 14 4.0 14.0 0.00 0.00 0.00 71 1013.8
20260506232037 81 328 5.0 14.0 0.00 0.00 0.00 71 1013.6
20260506231549 82 349 5.0 14.0 0.00 0.00 0.00 71 1013.5
20260506231036 82 15 4.0 14.0 0.00 0.00 0.00 71 1013.5
20260506230536 83 0 4.0 14.0 0.00 0.00 0.00 71 1013.5
20260506230051 83 67 3.0 13.0 0.00 0.00 0.00 72 1013.3
20260506225536 83 89 2.0 13.0 0.00 0.00 0.00 72 1013.2
20260506225037 84 74 3.0 13.0 0.00 0.00 0.00 73 1013.1
20260506224544 84 0 3.0 10.0 0.00 0.00 0.00 73 1013.0
20260506224037 84 54 4.0 11.0 0.00 0.00 0.00 72 1013.1
20260506223536 84 0 1.0 11.0 0.00 0.00 0.00 72 1012.9
20260506223104 85 0 2.0 13.0 0.00 0.00 0.00 72 1012.8
20260506222537 85 10 3.0 13.0 0.00 0.00 0.00 72 1012.8
20260506222037 85 22 2.0 11.0 0.00 0.00 0.00 72 1012.8
20260506221540 86 0 2.0 11.0 0.00 0.00 0.00 71 1012.8
20260506221036 86 345 2.0 11.0 0.00 0.00 0.00 71 1012.7
20260506220536 87 0 2.0 10.0 0.00 0.00 0.00 70 1012.7
20260506220039 87 327 3.0 10.0 0.00 0.00 0.00 69 1012.5
20260506215537 88 5 0.0 9.0 0.00 0.00 0.00 68 1012.7
20260506215036 88 78 1.0 9.0 0.00 0.00 0.00 67 1012.5
20260506214545 89 5 1.0 6.0 0.00 0.00 0.00 66 1012.7
20260506214037 89 0 1.0 4.0 0.00 0.00 0.00 66 1012.5
20260506213535 89 76 1.0 6.0 0.00 0.00 0.00 65 1012.5
20260506213042 89 0 1.0 6.0 0.00 0.00 0.00 66 1012.4
20260506212537 88 0 1.0 4.0 0.00 0.00 0.00 66 1012.4
20260506212040 88 0 1.0 4.0 0.00 0.00 0.00 66 1012.5
20260506211544 88 91 0.0 4.0 0.00 0.00 0.00 67 1012.7
20260506211036 88 0 1.0 4.0 0.00 0.00 0.00 67 1012.9
20260506210536 88 80 1.0 4.0 0.00 0.00 0.00 66 1012.9
20260506210051 89 0 0.0 4.0 0.00 0.00 0.00 66 1012.9
20260506205536 89 0 1.0 4.0 0.00 0.00 0.00 65 1013.1
20260506205036 89 0 0.0 6.0 0.00 0.00 0.00 65 1013.0
20260506204548 89 0 1.0 6.0 0.00 0.00 0.00 65 1013.0
20260506204036 90 0 0.0 1.0 0.00 0.00 0.00 64 1013.0
20260506203536 90 0 0.0 2.0 0.00 0.00 0.00 63 1013.0
20260506203047 89 0 0.0 3.0 0.00 0.00 0.00 63 1013.1
20260506202536 90 0 0.0 6.0 0.00 0.00 0.00 63 1013.1
20260506202037 90 0 1.0 6.0 0.00 0.00 0.00 63 1013.2
20260506201550 90 82 1.0 7.0 0.00 0.00 0.00 63 1013.1
20260506201040 90 98 1.0 7.0 0.00 0.00 0.00 64 1013.2
20260506200536 91 101 1.0 7.0 0.00 0.00 0.00 64 1013.1
20260506195537 90 0 0.0 7.0 0.00 0.00 0.00 64 1013.1
20260506195036 90 113 1.0 7.0 0.00 0.00 0.00 64 1013.3
20260506194553 90 0 1.0 5.0 0.00 0.00 0.00 66 1013.4
20260506194036 89 74 1.0 5.0 0.00 0.00 0.00 66 1013.2
20260506193540 89 0 1.0 6.0 0.00 0.00 0.00 66 1013.4
20260506193047 89 0 0.0 6.0 0.00 0.00 0.00 65 1013.5
20260506192536 89 73 2.0 6.0 0.00 0.00 0.00 67 1013.6
20260506192038 88 0 0.0 6.0 0.00 0.00 0.00 68 1013.4
20260506191552 88 138 0.0 6.0 0.00 0.00 0.00 68 1013.5
20260506191036 88 87 2.0 5.0 0.00 0.00 0.00 68 1013.6
20260506190535 88 0 0.0 4.0 0.00 0.00 0.00 69 1013.7
20260506190049 87 0 0.0 6.0 0.00 0.00 0.00 68 1013.7
20260506185535 88 0 0.0 8.0 0.00 0.00 0.00 69 1013.7
20260506185039 88 0 1.0 8.0 0.00 0.00 0.00 68 1013.9
20260506184554 88 56 2.0 7.0 0.00 0.00 0.00 68 1013.7
20260506184037 88 75 2.0 7.0 0.00 0.00 0.00 68 1013.9
20260506183537 88 90 3.0 9.0 0.00 0.00 0.00 69 1014.0
20260506183050 89 0 2.0 9.0 0.00 0.00 0.00 69 1013.9
20260506182536 89 66 0.0 7.0 0.00 0.00 0.00 68 1014.2
20260506182036 89 88 2.0 7.0 0.00 0.00 0.00 69 1014.1
20260506181549 89 0 0.0 5.0 0.00 0.00 0.00 68 1014.2
20260506181036 89 95 0.0 6.0 0.00 0.00 0.00 68 1014.3
20260506180536 88 87 1.0 6.0 0.00 0.00 0.00 70 1014.3
20260506180052 88 0 1.0 6.0 0.00 0.00 0.00 69 1014.3
20260506175535 88 5 1.0 8.0 0.00 0.00 0.00 70 1014.3
20260506175036 88 0 2.0 8.0 0.00 0.00 0.00 71 1014.3
20260506174540 87 77 1.0 7.0 0.00 0.00 0.00 72 1014.2
20260506174039 87 0 2.0 5.0 0.00 0.00 0.00 72 1014.3
20260506173538 86 0 0.0 8.0 0.00 0.00 0.00 74 1014.2
20260506173043 85 61 2.0 8.0 0.00 0.00 0.00 74 1014.4
20260506172536 85 76 0.0 6.0 0.00 0.00 0.00 75 1014.4
20260506172037 85 0 0.0 6.0 0.00 0.00 0.00 76 1014.6
20260506171549 84 318 0.0 5.0 0.00 0.00 0.00 77 1014.5
20260506171036 84 0 1.0 4.0 0.00 0.00 0.00 78 1014.5
20260506170537 83 0 0.0 4.0 0.00 0.00 0.00 78 1014.5
20260506170041 83 0 0.0 4.0 0.00 0.00 0.00 79 1014.5
20260506165536 83 5 0.0 3.0 0.00 0.00 0.00 79 1014.5
20260506165036 83 0 0.0 4.0 0.00 0.00 0.00 80 1014.5
20260506164543 83 0 0.0 5.0 0.00 0.00 0.00 80 1014.5
20260506164036 82 0 0.0 5.0 0.00 0.00 0.00 80 1014.5
20260506163536 82 0 0.0 3.0 0.00 0.00 0.00 79 1014.5
20260506163047 82 0 0.0 0.0 0.00 0.00 0.00 81 1014.6
20260506162537 81 0 0.0 1.0 0.00 0.00 0.00 81 1014.6
20260506162039 81 0 0.0 2.0 0.00 0.00 0.00 82 1014.5
20260506161555 81 0 0.0 2.0 0.00 0.00 0.00 82 1014.6
20260506161036 81 0 0.0 2.0 0.00 0.00 0.00 83 1014.5
20260506160540 80 0 0.0 1.0 0.00 0.00 0.00 84 1014.5
20260506160105 80 0 0.0 1.0 0.00 0.00 0.00 84 1014.4
20260506155537 80 0 0.0 1.0 0.00 0.00 0.00 84 1014.4
20260506155036 80 0 0.0 0.0 0.00 0.00 0.00 84 1014.4
20260506154540 80 0 0.0 0.0 0.00 0.00 0.00 84 1014.3
20260506154036 80 0 0.0 0.0 0.00 0.00 0.00 84 1014.1
20260506153536 80 0 0.0 0.0 0.00 0.00 0.00 84 1014.2
20260506153050 80 0 0.0 0.0 0.00 0.00 0.00 84 1014.0
20260506152538 80 0 0.0 0.0 0.00 0.00 0.00 85 1014.0
20260506152037 79 0 0.0 1.0 0.00 0.00 0.00 85 1013.9
20260506151553 79 0 0.0 1.0 0.00 0.00 0.00 86 1013.9
20260506151036 79 0 0.0 2.0 0.00 0.00 0.00 86 1013.7
20260506150536 79 0 0.0 2.0 0.00 0.00 0.00 87 1013.8
20260506150040 79 0 0.0 4.0 0.00 0.00 0.00 88 1013.6
20260506145537 78 0 0.0 4.0 0.00 0.00 0.00 88 1013.5
20260506145037 78 0 1.0 6.0 0.00 0.00 0.00 88 1013.5
20260506144552 78 0 1.0 6.0 0.00 0.00 0.00 88 1013.5
20260506144036 78 110 0.0 3.0 0.00 0.00 0.00 89 1013.4
20260506143536 78 0 0.0 3.0 0.00 0.00 0.00 89 1013.4
20260506143047 77 0 0.0 3.0 0.00 0.00 0.00 89 1013.3
20260506142536 77 0 0.0 3.0 0.00 0.00 0.00 90 1013.2
20260506142036 77 0 0.0 5.0 0.00 0.00 0.00 91 1013.2
20260506141541 77 120 0.0 5.0 0.00 0.00 0.00 91 1013.2
20260506141037 77 0 0.0 8.0 0.00 0.00 0.00 91 1013.0
20260506140537 76 86 0.0 8.0 0.00 0.00 0.00 91 1012.9
20260506140046 76 0 1.0 7.0 0.00 0.00 0.00 91 1012.6
20260506135536 76 115 1.0 9.0 0.00 0.00 0.00 92 1012.5
20260506135036 76 50 3.0 10.0 0.00 0.00 0.00 91 1012.4
20260506134609 76 107 1.0 10.0 0.00 0.00 0.00 92 1012.3
20260506134037 76 164 1.0 9.0 0.00 0.00 0.00 92 1012.4
20260506133601 76 180 1.0 9.0 0.00 0.00 0.00 92 1012.3
20260506133048 76 143 3.0 9.0 0.00 0.00 0.00 92 1012.4
20260506132536 76 146 1.0 7.0 0.00 0.00 0.00 92 1012.3
20260506132036 76 0 0.0 4.0 0.00 0.00 0.00 92 1012.4
20260506131606 76 0 0.0 6.0 0.00 0.00 0.00 92 1012.4
20260506131036 75 0 1.0 6.0 0.00 0.00 0.00 92 1012.4
20260506130536 75 0 0.0 6.0 0.00 0.00 0.00 93 1012.4
20260506130045 75 0 1.0 6.0 0.00 0.00 0.00 93 1012.4
20260506125535 75 117 1.0 6.0 0.00 0.00 0.00 93 1012.4
20260506125036 75 155 0.0 6.0 0.00 0.00 0.00 93 1012.4
20260506124541 75 91 1.0 6.0 0.00 0.00 0.00 92 1012.4
20260506124037 75 89 1.0 6.0 0.00 0.00 0.00 92 1012.4
20260506123537 75 0 1.0 6.0 0.00 0.00 0.00 92 1012.3
20260506123050 75 0 0.0 4.0 0.00 0.00 0.00 92 1012.3
20260506122536 75 103 1.0 4.0 0.00 0.00 0.00 92 1012.2
20260506122036 75 110 0.0 4.0 0.00 0.00 0.00 92 1012.1
20260506121549 75 0 0.0 4.0 0.00 0.00 0.00 92 1012.1
20260506121036 75 0 0.0 5.0 0.00 0.00 0.00 92 1012.1
20260506120536 75 79 0.0 5.0 0.00 0.00 0.00 92 1012.0
20260506120051 75 0 1.0 4.0 0.00 0.00 0.00 91 1012.2
20260506115537 75 81 1.0 4.0 0.00 0.00 0.00 91 1012.2
20260506115036 75 0 1.0 3.0 0.00 0.00 0.00 92 1012.2
20260506114548 75 104 0.0 4.0 0.00 0.00 0.00 91 1012.3
20260506114036 75 0 0.0 4.0 0.00 0.00 0.00 91 1012.2
20260506113537 75 0 0.0 4.0 0.00 0.00 0.00 91 1012.2
20260506113051 75 0 0.0 4.0 0.00 0.00 0.00 91 1012.1
20260506112537 75 86 0.0 4.0 0.00 0.00 0.00 91 1012.2
20260506112036 75 0 0.0 5.0 0.00 0.00 0.00 91 1012.1
20260506111538 75 109 0.0 5.0 0.00 0.00 0.00 91 1012.0
20260506111036 75 173 0.0 5.0 0.00 0.00 0.00 91 1012.0
20260506110537 75 0 0.0 5.0 0.00 0.00 0.00 91 1012.0
20260506110051 75 129 0.0 6.0 0.00 0.00 0.00 91 1012.0
20260506105536 75 0 1.0 6.0 0.00 0.00 0.00 90 1012.0
20260506105036 75 0 1.0 6.0 0.00 0.00 0.00 90 1012.0
20260506104544 76 153 2.0 6.0 0.00 0.00 0.00 90 1012.0
20260506104036 76 0 0.0 4.0 0.00 0.00 0.00 90 1011.8
20260506103536 76 133 0.0 5.0 0.00 0.00 0.00 90 1011.8
20260506103042 76 0 0.0 6.0 0.00 0.00 0.00 90 1011.8
20260506102535 76 0 1.0 6.0 0.00 0.00 0.00 90 1011.7
20260506102037 75 149 0.0 3.0 0.00 0.00 0.00 90 1011.6
20260506101541 76 0 0.0 3.0 0.00 0.00 0.00 89 1011.4
20260506101031 76 0 0.0 4.0 0.00 0.00 0.00 89 1011.6
20260506100534 76 0 0.0 6.0 0.00 0.00 0.00 88 1011.6
20260506100040 76 163 0.0 6.0 0.00 0.00 0.00 88 1011.7
20260506095534 76 169 1.0 6.0 0.00 0.00 0.00 88 1011.5
20260506095037 76 0 1.0 6.0 0.00 0.00 0.00 88 1011.4
20260506094545 76 136 3.0 7.0 0.00 0.00 0.00 88 1011.3
20260506094039 76 153 2.0 7.0 0.00 0.00 0.00 88 1011.4
20260506093534 76 157 1.0 7.0 0.00 0.00 0.00 87 1011.5
20260506093051 76 153 3.0 8.0 0.00 0.00 0.00 87 1011.5
20260506092535 76 142 1.0 8.0 0.00 0.00 0.00 87 1011.5
20260506092037 77 171 1.0 6.0 0.00 0.00 0.00 87 1011.7
20260506091542 77 0 1.0 7.0 0.00 0.00 0.00 87 1011.8
20260506091035 77 150 2.0 7.0 0.00 0.00 0.00 87 1011.9
20260506090534 77 147 4.0 7.0 0.00 0.00 0.00 87 1011.9
20260506090041 77 145 1.0 8.0 0.00 0.00 0.00 87 1012.0
20260506085534 77 0 2.0 8.0 0.00 0.00 0.00 87 1012.0
20260506085034 77 154 2.0 8.0 0.00 0.00 0.00 87 1012.1
20260506084538 77 157 4.0 8.0 0.00 0.00 0.00 87 1012.1
20260506084036 77 0 1.0 8.0 0.00 0.00 0.00 87 1012.0
20260506083534 77 164 4.0 8.0 0.00 0.00 0.00 87 1012.0
20260506083104 77 148 1.0 8.0 0.00 0.00 0.00 87 1011.9
20260506082536 77 154 2.0 9.0 0.00 0.00 0.00 87 1011.7
20260506082035 77 160 3.0 9.0 0.00 0.00 0.00 87 1011.8
20260506081548 77 154 3.0 9.0 0.00 0.00 0.00 87 1011.8
20260506081035 77 130 3.0 8.0 0.00 0.00 0.00 87 1011.6
20260506080535 77 167 3.0 9.0 0.00 0.00 0.00 87 1011.7
20260506073039 77 202 3.0 8.0 0.00 0.00 0.00 86 1012.0
20260506072534 77 0 4.0 10.0 0.00 0.00 0.00 86 1012.0
20260506072034 77 159 4.0 10.0 0.00 0.00 0.00 86 1011.9
20260506071551 77 169 4.0 9.0 0.00 0.00 0.00 86 1012.1
20260506071034 77 0 4.0 12.0 0.00 0.00 0.00 86 1012.2
20260506070536 77 125 3.0 12.0 0.00 0.00 0.00 86 1012.3
20260506062033 77 169 7.0 17.0 0.00 0.00 0.00 85 1012.3
20260506061542 77 171 5.0 13.0 0.00 0.00 0.00 85 1012.4
20260506061034 77 170 5.0 14.0 0.00 0.00 0.00 85 1012.4
20260506060535 77 117 4.0 16.0 0.00 0.00 0.00 85 1012.3
20260506051034 77 155 5.0 13.0 0.00 0.00 0.00 86 1012.6
20260506050534 77 98 4.0 10.0 0.00 0.00 0.00 86 1012.6
20260506045034 77 76 2.0 12.0 0.00 0.00 0.00 86 1012.5
20260506044539 77 150 3.0 12.0 0.00 0.00 0.00 86 1012.5
20260506044035 77 122 4.0 10.0 0.00 0.00 0.00 86 1012.6
20260506043534 77 130 3.0 10.0 0.00 0.00 0.00 86 1012.6
20260506043044 77 0 3.0 10.0 0.00 0.00 0.00 86 1012.4
20260506042535 77 119 3.0 11.0 0.00 0.00 0.00 86 1012.5
20260506042035 78 134 3.0 12.0 0.00 0.00 0.00 86 1012.4
20260506041542 78 0 2.0 12.0 0.00 0.00 0.00 86 1012.4
20260506041036 78 150 3.0 10.0 0.00 0.00 0.00 85 1012.2
20260506040536 78 0 2.0 12.0 0.00 0.00 0.00 85 1012.1
20260506040041 78 138 4.0 12.0 0.00 0.00 0.00 85 1012.2
20260506035536 78 70 3.0 9.0 0.00 0.00 0.00 85 1012.2
20260506035037 78 84 2.0 12.0 0.00 0.00 0.00 85 1012.2
20260506034551 78 0 4.0 12.0 0.00 0.00 0.00 85 1012.2
20260506034036 78 104 4.0 11.0 0.00 0.00 0.00 85 1012.1
20260506033536 78 145 5.0 11.0 0.00 0.00 0.00 84 1012.0
20260506033049 79 153 3.0 11.0 0.00 0.00 0.00 84 1012.0
20260506032536 79 110 3.0 11.0 0.00 0.00 0.00 84 1012.0
20260506032036 79 172 2.0 9.0 0.00 0.00 0.00 84 1011.9
20260506031542 79 0 3.0 7.0 0.00 0.00 0.00 84 1011.9
20260506031038 79 113 3.0 7.0 0.00 0.00 0.00 84 1011.8
20260506030538 79 0 2.0 8.0 0.00 0.00 0.00 84 1011.7
20260506030042 79 83 2.0 8.0 0.00 0.00 0.00 84 1011.7
20260506025537 79 127 2.0 9.0 0.00 0.00 0.00 83 1011.6
20260506025036 79 153 2.0 9.0 0.00 0.00 0.00 83 1011.5
20260506024550 79 109 3.0 9.0 0.00 0.00 0.00 83 1011.3
20260506024036 79 136 2.0 9.0 0.00 0.00 0.00 83 1011.3
20260506023536 79 159 4.0 9.0 0.00 0.00 0.00 83 1011.3
20260506023047 80 0 4.0 9.0 0.00 0.00 0.00 83 1011.1
20260506022536 80 68 2.0 9.0 0.00 0.00 0.00 83 1010.9
20260506022036 80 93 4.0 10.0 0.00 0.00 0.00 82 1010.7
20260506021547 80 111 4.0 10.0 0.00 0.00 0.00 82 1010.6
20260506021036 80 84 4.0 10.0 0.00 0.00 0.00 82 1010.5
20260506020536 80 123 3.0 10.0 0.00 0.00 0.00 81 1010.5
20260506020050 81 96 3.0 12.0 0.00 0.00 0.00 81 1010.3
20260506015538 81 96 4.0 12.0 0.00 0.00 0.00 80 1010.3
20260506015037 81 77 4.0 11.0 0.00 0.00 0.00 80 1010.4
20260506014541 81 100 4.0 11.0 0.00 0.00 0.00 80 1010.3
20260506014036 81 84 3.0 11.0 0.00 0.00 0.00 80 1010.4
20260506013536 82 92 3.0 11.0 0.00 0.00 0.00 79 1010.4
20260506013048 82 69 4.0 11.0 0.00 0.00 0.00 79 1010.2
20260506012536 82 108 6.0 11.0 0.00 0.00 0.00 79 1010.1
20260506012035 82 86 5.0 11.0 0.00 0.00 0.00 78 1010.1
20260506011610 82 115 3.0 7.0 0.00 0.00 0.00 78 1010.1
20260506011036 83 0 1.0 6.0 0.00 0.00 0.00 78 1009.9
20260506010537 83 0 2.0 11.0 0.00 0.00 0.00 77 1009.8
20260506010047 83 155 5.0 12.0 0.00 0.00 0.00 76 1009.7
20260506005536 84 78 6.0 12.0 0.00 0.00 0.00 76 1009.7
20260506005037 84 80 4.0 11.0 0.00 0.00 0.00 75 1009.6
20260506004602 84 66 3.0 13.0 0.00 0.00 0.00 74 1009.5
20260506004036 85 123 4.0 13.0 0.00 0.00 0.00 73 1009.4
20260506003536 85 183 4.0 12.0 0.00 0.00 0.00 73 1009.5
20260506003042 85 80 3.0 8.0 0.00 0.00 0.00 73 1009.5
20260506002536 85 85 2.0 8.0 0.00 0.00 0.00 73 1009.5
20260506002036 86 66 3.0 9.0 0.00 0.00 0.00 72 1009.5
20260506001549 86 57 4.0 11.0 0.00 0.00 0.00 71 1009.5
20260506001036 86 130 3.0 13.0 0.00 0.00 0.00 71 1009.5
20260506000537 86 74 4.0 13.0 0.00 0.00 0.00 70 1009.4
20260506000115 87 144 4.0 9.0 0.00 0.00 0.00 69 1009.4
20260505235536 87 103 1.0 9.0 0.00 0.00 0.00 69 1009.3